When you browse on this site, cookies collect data to enhance your experience and personalize the content and advertising you see.
Visit our Privacy Policy to learn more. By continuing to use the site, you agree to this use of cookies and data.
  • In United Kingdom
  • List of Countries
  • For 7 days
  • Water Temperature
  • Weather Map
  • Weather Widgets
  • user-avatar
    Login

    Hourly Weather Lincoln

    Today, 19 February, Wednesday

    Time Temperature Precipitation Wind Pressure Humidity
    00:00 +1°C° 0 mm 6 mps 755 mmHg 74%
    01:00 +1°C° 0 mm 6 mps 755 mmHg 74%
    02:00 -1°C° 0 mm 6 mps 755 mmHg 75%
    03:00 -1°C° 0 mm 6 mps 756 mmHg 75%
    04:00 -1°C° 0 mm 6 mps 756 mmHg 76%
    05:00 0°C° 0 mm 5 mps 756 mmHg 78%
    06:00 0°C° 0 mm 5 mps 757 mmHg 79%
    07:00 0°C° 0 mm 5 mps 757 mmHg 78%
    08:00 +1°C° 0 mm 5 mps 757 mmHg 77%
    09:00 +1°C° 0 mm 5 mps 758 mmHg 77%
    10:00 +2°C° 0 mm 6 mps 757 mmHg 75%
    11:00 +3°C° 0 mm 6 mps 757 mmHg 74%
    12:00 +3°C° 0 mm 7 mps 757 mmHg 72%
    13:00 +3°C° 0.1 mm 7 mps 756 mmHg 77%
    14:00 +3°C° 0.1 mm 7 mps 755 mmHg 82%
    15:00 +4°C° 0.1 mm 7 mps 754 mmHg 88%
    16:00 +4°C° 0.4 mm 7 mps 753 mmHg 88%
    17:00 +4°C° 0.4 mm 8 mps 753 mmHg 89%
    18:00 +5°C° 0.4 mm 8 mps 752 mmHg 90%
    19:00 +5°C° 0.3 mm 8 mps 751 mmHg 88%
    20:00 +6°C° 0.3 mm 8 mps 751 mmHg 87%
    21:00 +6°C° 0.3 mm 9 mps 751 mmHg 85%
    22:00 +6°C° 0 mm 8 mps 751 mmHg 85%
    23:00 +6°C° 0 mm 8 mps 750 mmHg 85%

    Tomorrow, 20 February, Thursday

    Time Temperature Precipitation Wind Pressure Humidity
    00:00 +6°C° 0 mm 8 mps 750 mmHg 85%
    01:00 +6°C° 0 mm 8 mps 750 mmHg 85%
    02:00 +5°C° 0 mm 8 mps 749 mmHg 85%
    03:00 +5°C° 0 mm 8 mps 748 mmHg 85%
    04:00 +5°C° 0 mm 8 mps 748 mmHg 85%
    05:00 +6°C° 0 mm 8 mps 747 mmHg 84%
    06:00 +6°C° 0 mm 8 mps 746 mmHg 84%
    07:00 +6°C° 0 mm 9 mps 746 mmHg 83%
    08:00 +6°C° 0 mm 10 mps 745 mmHg 81%
    09:00 +7°C° 0 mm 10 mps 745 mmHg 80%
    10:00 +6°C° 0.7 mm 10 mps 745 mmHg 82%
    11:00 +5°C° 0.7 mm 9 mps 745 mmHg 84%
    12:00 +4°C° 0.7 mm 8 mps 745 mmHg 86%
    13:00 +4°C° 0.3 mm 8 mps 746 mmHg 81%
    14:00 +2°C° 0.3 mm 8 mps 747 mmHg 76%
    15:00 +2°C° 0.3 mm 8 mps 748 mmHg 72%
    16:00 +2°C° 0 mm 7 mps 749 mmHg 70%
    17:00 0°C° 0 mm 7 mps 751 mmHg 69%
    18:00 +1°C° 0 mm 6 mps 752 mmHg 68%
    19:00 0°C° 0 mm 7 mps 753 mmHg 69%
    20:00 0°C° 0 mm 7 mps 753 mmHg 70%
    21:00 -1°C° 0 mm 7 mps 754 mmHg 71%
    22:00 -1°C° 0 mm 7 mps 755 mmHg 73%
    23:00 -1°C° 0 mm 7 mps 756 mmHg 76%

    Day after tomorrow, 21 February, Friday

    Time Temperature Precipitation Wind Pressure Humidity
    00:00 -1°C° 0 mm 7 mps 757 mmHg 78%
    01:00 -1°C° 0 mm 7 mps 757 mmHg 79%
    02:00 -1°C° 0 mm 7 mps 758 mmHg 80%
    03:00 -1°C° 0 mm 6 mps 758 mmHg 81%
    04:00 +1°C° 0 mm 6 mps 759 mmHg 81%
    05:00 +1°C° 0 mm 6 mps 759 mmHg 80%
    06:00 +1°C° 0 mm 6 mps 759 mmHg 80%
    13:00 +5°C° 0 mm 10 mps 758 mmHg 74%
    14:00 +6°C° 0 mm 10 mps 758 mmHg 73%
    15:00 +6°C° 0 mm 10 mps 757 mmHg 73%
    16:00 +6°C° 0 mm 10 mps 757 mmHg 72%
    17:00 +6°C° 0 mm 10 mps 757 mmHg 72%
    18:00 +6°C° 0 mm 10 mps 756 mmHg 72%
    19:00 +6°C° 0 mm 10 mps 756 mmHg 74%
    20:00 +7°C° 0 mm 10 mps 756 mmHg 75%
    21:00 +7°C° 0 mm 10 mps 756 mmHg 76%
    22:00 +7°C° 0 mm 10 mps 756 mmHg 78%
    23:00 +8°C° 0 mm 10 mps 756 mmHg 79%

    22 February, Saturday

    Time Temperature Precipitation Wind Pressure Humidity
    00:00 +8°C° 0 mm 10 mps 755 mmHg 81%
    01:00 +8°C° 0 mm 10 mps 755 mmHg 81%
    02:00 +8°C° 0 mm 10 mps 755 mmHg 82%
    03:00 +8°C° 0 mm 10 mps 754 mmHg 82%
    04:00 +8°C° 0.4 mm 10 mps 754 mmHg 83%
    05:00 +9°C° 0.4 mm 10 mps 754 mmHg 84%
    06:00 +9°C° 0.4 mm 10 mps 754 mmHg 85%
    07:00 +9°C° 0.3 mm 10 mps 754 mmHg 85%
    08:00 +10°C° 0.3 mm 9 mps 753 mmHg 86%
    09:00 +10°C° 0.3 mm 9 mps 753 mmHg 87%
    10:00 +9°C° 0.1 mm 10 mps 754 mmHg 81%
    11:00 +9°C° 0.1 mm 11 mps 754 mmHg 75%
    12:00 +11°C° 0.1 mm 11 mps 754 mmHg 69%
    13:00 +9°C° 0 mm 11 mps 754 mmHg 67%
    14:00 +9°C° 0 mm 11 mps 754 mmHg 65%
    15:00 +9°C° 0 mm 10 mps 755 mmHg 63%
    16:00 +8°C° 0 mm 10 mps 755 mmHg 65%
    17:00 +7°C° 0 mm 9 mps 756 mmHg 67%
    18:00 +6°C° 0 mm 8 mps 756 mmHg 69%
    19:00 +6°C° 0 mm 7 mps 757 mmHg 70%
    20:00 +5°C° 0 mm 6 mps 757 mmHg 71%
    21:00 +5°C° 0 mm 6 mps 758 mmHg 72%
    22:00 +5°C° 0 mm 6 mps 758 mmHg 73%
    23:00 +5°C° 0 mm 6 mps 759 mmHg 74%

    23 February, Sunday

    Time Temperature Precipitation Wind Pressure Humidity
    00:00 +5°C° 0 mm 6 mps 759 mmHg 75%
    01:00 +4°C° 0 mm 6 mps 759 mmHg 77%
    02:00 +4°C° 0 mm 6 mps 759 mmHg 78%
    03:00 +4°C° 0 mm 6 mps 758 mmHg 80%
    04:00 +5°C° 0.1 mm 5 mps 758 mmHg 83%
    05:00 +5°C° 0.1 mm 4 mps 757 mmHg 86%
    06:00 +5°C° 0.1 mm 3 mps 757 mmHg 88%
    07:00 +6°C° 0.8 mm 2 mps 756 mmHg 91%
    08:00 +6°C° 0.8 mm 2 mps 756 mmHg 94%
    09:00 +7°C° 0.8 mm 1 mps 755 mmHg 97%
    10:00 +7°C° 0.8 mm 2 mps 755 mmHg 96%
    11:00 +7°C° 0.8 mm 3 mps 754 mmHg 96%
    12:00 +8°C° 0.8 mm 3 mps 754 mmHg 95%
    13:00 +7°C° 0.2 mm 3 mps 755 mmHg 94%
    14:00 +7°C° 0.2 mm 3 mps 755 mmHg 92%
    15:00 +7°C° 0.2 mm 3 mps 755 mmHg 90%
    16:00 +6°C° 0 mm 4 mps 757 mmHg 88%
    17:00 +5°C° 0 mm 4 mps 758 mmHg 86%
    18:00 +5°C° 0 mm 5 mps 759 mmHg 83%
    19:00 +4°C° 0 mm 4 mps 760 mmHg 84%
    20:00 +3°C° 0 mm 4 mps 761 mmHg 84%
    21:00 +2°C° 0 mm 3 mps 763 mmHg 84%
    22:00 +2°C° 0 mm 3 mps 763 mmHg 84%
    23:00 +2°C° 0 mm 3 mps 764 mmHg 84%

    24 February, Monday

    Time Temperature Precipitation Wind Pressure Humidity
    00:00 +1°C° 0 mm 3 mps 764 mmHg 84%
    01:00 +1°C° 0 mm 3 mps 764 mmHg 85%
    02:00 +1°C° 0 mm 3 mps 765 mmHg 86%
    03:00 +2°C° 0 mm 2 mps 765 mmHg 87%
    04:00 +2°C° 0 mm 2 mps 764 mmHg 85%
    05:00 +3°C° 0 mm 2 mps 764 mmHg 84%
    06:00 +2°C° 0 mm 3 mps 763 mmHg 82%
    07:00 +3°C° 0 mm 4 mps 763 mmHg 82%
    08:00 +2°C° 0 mm 5 mps 762 mmHg 83%
    09:00 +3°C° 0 mm 6 mps 761 mmHg 83%
    10:00 +4°C° 0 mm 7 mps 760 mmHg 85%
    11:00 +6°C° 0 mm 7 mps 759 mmHg 86%
    12:00 +9°C° 0 mm 7 mps 759 mmHg 88%
    13:00 +10°C° 0 mm 8 mps 758 mmHg 84%
    14:00 +10°C° 0 mm 9 mps 757 mmHg 79%
    15:00 +11°C° 0 mm 10 mps 756 mmHg 74%
    16:00 +10°C° 0 mm 9 mps 755 mmHg 76%
    17:00 +9°C° 0 mm 8 mps 754 mmHg 78%
    18:00 +8°C° 0 mm 7 mps 754 mmHg 80%
    19:00 +7°C° 0 mm 8 mps 754 mmHg 80%
    20:00 +7°C° 0 mm 8 mps 753 mmHg 81%
    21:00 +7°C° 0 mm 9 mps 753 mmHg 81%
    22:00 +7°C° 0.2 mm 8 mps 753 mmHg 83%
    23:00 +8°C° 0.2 mm 7 mps 752 mmHg 85%
    Show more